STARLINK AB

Last updated on Sat Jul 15 2023 00:02:05 GMT+0000 (Coordinated Universal Time)

1 57243U 23094AB 23195.75001157 -.01070849 34145-3 -30735-2 0 9996 2 57243 42.9956 276.0518 0024235 199.8901 240.7343 15.91700638 1307

Satellite not in orbit